Location: IoMAS Observatory
(54.1780°N, 4.6265°W)
Time: 23:35:20
(UTC+02:00)

ISS - Visible Passes

Search period start: 20 May 2018 00:00
Search period end: 30 May 2018 00:00
Orbit: 402 x 407 km, 51.6° (Epoch: 21 May)

Date Brightness Start Highest point End Pass type
(mag) Time Alt. Az. Time Alt. Az. Time Alt. Az.
20 May -3.3 01:38:56 36° SE 01:38:56 36° SE 01:41:40 10° E visible
20 May -3.8 03:11:37 10° W 03:14:50 55° S 03:18:02 10° ESE visible
20 May -3.1 04:48:03 10° W 04:51:00 31° SSW 04:53:57 10° SE visible
21 May -3.0 00:43:40 10° SW 00:46:33 29° SSE 00:49:28 10° E visible
21 May -3.8 02:19:31 10° WSW 02:22:43 54° S 02:25:56 10° E visible
21 May -3.4 03:55:52 10° W 03:58:58 40° SSW 04:02:03 10° SE visible
21 May -2.6 23:51:58 10° SSW 23:54:33 22° SSE 23:57:09 10° E visible
22 May -3.7 01:27:26 10° WSW 01:30:36 49° S 01:33:47 10° E visible
22 May -3.7 03:03:42 10° W 03:06:52 48° S 03:10:02 10° ESE visible
22 May -2.5 04:40:22 10° W 04:42:55 21° SSW 04:45:26 10° SSE visible
23 May -3.5 00:35:24 10° SW 00:38:29 41° SSE 00:41:37 10° E visible
23 May -3.8 02:11:32 10° W 02:14:45 54° S 02:17:57 10° ESE visible
23 May -3.0 03:48:01 10° W 03:50:53 28° SSW 03:53:45 10° SE visible
23 May -3.1 23:43:26 10° SW 23:46:24 32° SSE 23:49:23 10° E visible
24 May -3.8 01:19:23 10° WSW 01:22:36 55° S 01:25:49 10° E visible
24 May -3.3 02:55:46 10° W 02:58:49 37° SSW 03:00:17 23° SSE visible
25 May -3.7 00:27:15 10° WSW 00:30:27 51° S 00:33:38 10° E visible
25 May -3.6 02:03:33 10° W 02:06:42 45° SSW 02:08:15 25° SE visible
25 May -1.6 03:40:20 10° WSW 03:40:50 12° WSW 03:40:50 12° WSW visible
25 May -3.5 23:35:09 10° WSW 23:38:17 44° SSE 23:41:26 10° E visible
26 May -3.7 01:11:20 10° W 01:14:33 52° S 01:17:10 14° ESE visible
26 May -2.4 02:47:53 10° W 02:49:46 22° SW 02:49:46 22° SW visible
27 May -3.7 00:19:09 10° W 00:22:22 55° S 00:25:35 10° ESE visible
27 May -3.2 01:55:34 10° W 01:58:33 33° SSW 01:58:55 32° S visible
27 May -3.7 23:26:58 10° WSW 23:30:10 53° S 23:33:23 10° E visible
28 May -3.4 01:03:17 10° W 01:06:24 42° SSW 01:08:10 21° SE visible
28 May -1.5 02:40:13 10° WSW 02:40:47 12° WSW 02:40:47 12° WSW visible
29 May -3.6 00:11:02 10° W 00:14:14 50° S 00:17:25 10° ESE visible
29 May -2.5 01:47:38 10° W 01:50:06 23° SW 01:50:06 23° SW visible
